QFA540 YSSY-YBBN

Flight info

Callsign QFA540
Flight time 1h 13m
Altitude 39000
Route OLSEM Y193 BANDA H252 BN
Aircraft A333/H-SADE1E2E3GHIJ3J5M1P2RWXY/LB2D1

Departure

Time 2026-04-24 08:01
Airport Sydney Kingsford Smith International Airport (YSSY)

Arrival

Time 2026-04-24 09:14
Airport Brisbane International Airport (YBBN)
Time Latitude Longitude Altitude Speed Heading
2026-04-24 07:34 -33.93090 151.17624 36 ft 0 kts 168°
2026-04-24 07:49 -33.93089 151.17624 37 ft 1 kts 168°
2026-04-24 07:49 -33.93074 151.17619 37 ft 2 kts 168°
2026-04-24 07:50 -33.93059 151.17616 37 ft 2 kts 168°
2026-04-24 07:50 -33.93044 151.17615 37 ft 2 kts 198°
2026-04-24 07:50 -33.93031 151.17624 37 ft 2 kts 223°
2026-04-24 07:50 -33.93022 151.17638 37 ft 2 kts 247°
2026-04-24 07:51 -33.93019 151.17654 37 ft 2 kts 272°
2026-04-24 07:51 -33.93019 151.17665 37 ft 0 kts 286°
2026-04-24 07:51 -33.93021 151.17670 37 ft 0 kts 285°
2026-04-24 07:55 -33.93020 151.17668 37 ft 0 kts 285°
2026-04-24 07:55 -33.93018 151.17656 37 ft 3 kts 283°
2026-04-24 07:55 -33.93010 151.17612 37 ft 6 kts 282°
2026-04-24 07:56 -33.92999 151.17549 37 ft 8 kts 281°
2026-04-24 07:56 -33.92986 151.17470 37 ft 10 kts 281°
2026-04-24 07:56 -33.92972 151.17384 37 ft 9 kts 282°
2026-04-24 07:56 -33.92966 151.17349 37 ft 0 kts 281°
2026-04-24 07:59 -33.92966 151.17348 37 ft 0 kts 281°
2026-04-24 07:59 -33.92963 151.17326 37 ft 4 kts 280°
2026-04-24 07:59 -33.92956 151.17268 37 ft 8 kts 271°
2026-04-24 08:00 -33.92973 151.17198 37 ft 9 kts 229°
2026-04-24 08:00 -33.93041 151.17188 37 ft 11 kts 167°
2026-04-24 08:00 -33.93198 151.17229 37 ft 51 kts 168°
2026-04-24 08:00 -33.93784 151.17378 37 ft 116 kts 168°
2026-04-24 08:01 -33.94751 151.17630 113 ft 160 kts 166°
2026-04-24 08:01 -33.95826 151.17938 724 ft 159 kts 167°
2026-04-24 08:01 -33.96918 151.17987 1410 ft 159 kts 182°
2026-04-24 08:01 -33.98014 151.17870 1963 ft 164 kts 180°
2026-04-24 08:02 -33.99200 151.17760 2374 ft 180 kts 180°
2026-04-24 08:02 -34.00497 151.17454 2777 ft 201 kts 207°
2026-04-24 08:02 -34.01509 151.16249 3227 ft 217 kts 244°
2026-04-24 08:02 -34.01936 151.14461 3643 ft 233 kts 261°
2026-04-24 08:03 -34.02208 151.12457 4090 ft 251 kts 262°
2026-04-24 08:03 -34.02205 151.10327 4515 ft 268 kts 285°
2026-04-24 08:03 -34.01328 151.08319 5164 ft 274 kts 315°
2026-04-24 08:03 -33.99802 151.07062 5959 ft 272 kts 342°
2026-04-24 08:04 -33.97979 151.06485 6744 ft 274 kts 351°
2026-04-24 08:04 -33.96090 151.06264 7451 ft 275 kts 11°
2026-04-24 08:04 -33.94366 151.07198 8190 ft 273 kts 45°
2026-04-24 08:04 -33.93247 151.08998 8952 ft 273 kts 60°
2026-04-24 08:05 -33.92270 151.10931 9693 ft 276 kts 60°
2026-04-24 08:05 -33.91242 151.12901 10456 ft 279 kts 60°
2026-04-24 08:05 -33.90189 151.14873 11069 ft 287 kts 59°
2026-04-24 08:05 -33.89074 151.16936 11498 ft 302 kts 59°
2026-04-24 08:06 -33.87911 151.19057 12173 ft 308 kts 59°
2026-04-24 08:06 -33.86715 151.21222 12941 ft 310 kts 58°
2026-04-24 08:06 -33.85519 151.23379 13657 ft 314 kts 58°
2026-04-24 08:06 -33.84316 151.25549 14360 ft 318 kts 58°
2026-04-24 08:07 -33.83077 151.27773 15092 ft 320 kts 58°
2026-04-24 08:07 -33.81844 151.29987 15822 ft 323 kts 59°
2026-04-24 08:07 -33.80584 151.32246 16535 ft 326 kts 59°
2026-04-24 08:07 -33.79335 151.34488 17215 ft 330 kts 59°
2026-04-24 08:08 -33.78054 151.36783 17827 ft 335 kts 59°
2026-04-24 08:08 -33.76719 151.39177 18170 ft 350 kts 59°
2026-04-24 08:08 -33.75352 151.41625 18741 ft 357 kts 59°
2026-04-24 08:09 -33.72569 151.46597 20097 ft 363 kts 59°
2026-04-24 08:09 -33.71155 151.49124 20719 ft 367 kts 59°
2026-04-24 08:09 -33.69722 151.51682 21317 ft 372 kts 59°
2026-04-24 08:09 -33.68281 151.54248 21920 ft 375 kts 59°
2026-04-24 08:10 -33.66824 151.56844 22507 ft 379 kts 59°
2026-04-24 08:10 -33.65209 151.59332 23057 ft 386 kts 51°
2026-04-24 08:10 -33.63236 151.61586 23611 ft 392 kts 43°
2026-04-24 08:10 -33.61020 151.63500 24141 ft 398 kts 38°
2026-04-24 08:11 -33.58684 151.65332 24682 ft 402 kts 36°
2026-04-24 08:11 -33.56325 151.67160 25197 ft 405 kts 36°
2026-04-24 08:11 -33.53955 151.69005 25697 ft 409 kts 37°
2026-04-24 08:11 -33.51540 151.70833 26194 ft 413 kts 33°
2026-04-24 08:12 -33.48991 151.72372 26668 ft 419 kts 26°
2026-04-24 08:12 -33.46240 151.73590 27148 ft 424 kts 20°
2026-04-24 08:12 -33.43367 151.74561 27618 ft 428 kts 18°
2026-04-24 08:12 -33.40496 151.75473 28078 ft 431 kts 18°
2026-04-24 08:13 -33.37600 151.76390 28544 ft 433 kts 18°
2026-04-24 08:13 -33.34678 151.77327 28973 ft 436 kts 18°
2026-04-24 08:13 -33.31731 151.78278 29387 ft 438 kts 19°
2026-04-24 08:13 -33.28822 151.79217 29809 ft 441 kts 19°
2026-04-24 08:14 -33.25821 151.80186 30219 ft 443 kts 19°
2026-04-24 08:14 -33.22842 151.81148 30587 ft 446 kts 19°
2026-04-24 08:14 -33.19809 151.82127 30941 ft 449 kts 19°
2026-04-24 08:14 -33.16792 151.83098 31258 ft 452 kts 19°
2026-04-24 08:15 -33.13774 151.84071 31575 ft 456 kts 19°
2026-04-24 08:15 -33.10663 151.85071 31900 ft 459 kts 19°
2026-04-24 08:15 -33.07581 151.86061 32216 ft 461 kts 19°
2026-04-24 08:15 -33.04499 151.87051 32524 ft 464 kts 19°
2026-04-24 08:16 -33.01364 151.88058 32821 ft 467 kts 19°
2026-04-24 08:16 -32.98222 151.89067 33117 ft 470 kts 19°
2026-04-24 08:16 -32.95062 151.90079 33398 ft 473 kts 18°
2026-04-24 08:16 -32.91853 151.91107 33681 ft 476 kts 18°
2026-04-24 08:17 -32.88675 151.92123 34030 ft 476 kts 19°
2026-04-24 08:17 -32.85461 151.93149 34402 ft 476 kts 18°
2026-04-24 08:17 -32.82264 151.94171 34706 ft 476 kts 18°
2026-04-24 08:17 -32.79052 151.95195 35001 ft 476 kts 18°
2026-04-24 08:18 -32.75866 151.96211 35285 ft 476 kts 18°
2026-04-24 08:18 -32.72678 151.97227 35567 ft 477 kts 18°
2026-04-24 08:18 -32.69471 151.98250 35827 ft 477 kts 18°
2026-04-24 08:18 -32.66272 151.99268 36090 ft 477 kts 18°
2026-04-24 08:19 -32.63048 152.00291 36393 ft 477 kts 18°
2026-04-24 08:19 -32.59855 152.01306 36724 ft 478 kts 18°
2026-04-24 08:19 -32.56622 152.02331 37067 ft 478 kts 18°
2026-04-24 08:19 -32.53417 152.03348 37377 ft 478 kts 18°
2026-04-24 08:20 -32.50230 152.04358 37640 ft 479 kts 18°
2026-04-24 08:20 -32.46981 152.05389 37879 ft 480 kts 18°
2026-04-24 08:20 -32.43756 152.06410 38072 ft 481 kts 18°
2026-04-24 08:20 -32.40530 152.07431 38244 ft 483 kts 18°
2026-04-24 08:21 -32.37286 152.08456 38423 ft 485 kts 18°
2026-04-24 08:21 -32.34025 152.09488 38617 ft 486 kts 18°
2026-04-24 08:21 -32.30718 152.10530 38807 ft 488 kts 18°
2026-04-24 08:21 -32.27475 152.11552 38976 ft 489 kts 18°
2026-04-24 08:22 -32.24149 152.12602 39157 ft 491 kts 18°
2026-04-24 08:22 -32.20842 152.13644 39337 ft 492 kts 18°
2026-04-24 08:22 -32.17576 152.14674 39441 ft 494 kts 18°
2026-04-24 08:23 -32.10925 152.16765 39448 ft 494 kts 18°
2026-04-24 08:23 -32.04298 152.18843 39449 ft 493 kts 17°
2026-04-24 08:24 -31.97650 152.20926 39414 ft 494 kts 17°
2026-04-24 08:24 -31.91009 152.23003 39429 ft 494 kts 17°
2026-04-24 08:25 -31.84351 152.25084 39425 ft 494 kts 17°
2026-04-24 08:25 -31.77721 152.27155 39423 ft 495 kts 17°
2026-04-24 08:26 -31.71064 152.29230 39443 ft 495 kts 17°
2026-04-24 08:26 -31.64402 152.31300 39413 ft 495 kts 17°
2026-04-24 08:27 -31.57702 152.33382 39411 ft 495 kts 17°
2026-04-24 08:27 -31.51088 152.35431 39422 ft 495 kts 17°
2026-04-24 08:28 -31.44427 152.37495 39416 ft 496 kts 17°
2026-04-24 08:28 -31.37740 152.39566 39413 ft 496 kts 17°
2026-04-24 08:29 -31.31046 152.41632 39413 ft 496 kts 17°
2026-04-24 08:29 -31.24357 152.43692 39437 ft 496 kts 17°
2026-04-24 08:30 -31.17700 152.45744 39423 ft 496 kts 17°
2026-04-24 08:30 -31.11001 152.47804 39412 ft 496 kts 17°
2026-04-24 08:31 -31.04350 152.49844 39411 ft 496 kts 17°
2026-04-24 08:31 -30.97673 152.51892 39434 ft 496 kts 17°
2026-04-24 08:32 -30.91011 152.53931 39425 ft 497 kts 16°
2026-04-24 08:32 -30.84315 152.55975 39429 ft 498 kts 17°
2026-04-24 08:33 -30.77644 152.58138 39429 ft 496 kts 19°
2026-04-24 08:33 -30.71015 152.60548 39426 ft 497 kts 19°
2026-04-24 08:34 -30.64400 152.62956 39431 ft 497 kts 19°
2026-04-24 08:34 -30.57809 152.65346 39439 ft 497 kts 18°
2026-04-24 08:35 -30.51195 152.67737 39432 ft 498 kts 18°
2026-04-24 08:35 -30.44590 152.70123 39423 ft 497 kts 18°
2026-04-24 08:36 -30.37972 152.72510 39434 ft 497 kts 18°
2026-04-24 08:36 -30.31374 152.74884 39418 ft 498 kts 18°
2026-04-24 08:37 -30.24755 152.77263 39418 ft 499 kts 18°
2026-04-24 08:37 -30.18098 152.79656 39415 ft 498 kts 18°
2026-04-24 08:38 -30.11501 152.82022 39411 ft 497 kts 18°
2026-04-24 08:38 -30.04860 152.84398 39409 ft 498 kts 17°
2026-04-24 08:39 -29.98224 152.86772 39391 ft 497 kts 17°
2026-04-24 08:39 -29.91645 152.89121 39397 ft 496 kts 17°
2026-04-24 08:40 -29.85016 152.91486 39384 ft 496 kts 17°
2026-04-24 08:40 -29.78420 152.93834 39386 ft 496 kts 17°
2026-04-24 08:41 -29.71849 152.96172 39383 ft 495 kts 17°
2026-04-24 08:41 -29.65261 152.98509 39393 ft 495 kts 17°
2026-04-24 08:42 -29.58676 153.00845 39390 ft 495 kts 17°
2026-04-24 08:42 -29.52136 153.03160 39394 ft 494 kts 17°
2026-04-24 08:43 -29.45542 153.05492 39359 ft 493 kts 17°
2026-04-24 08:43 -29.42292 153.06638 38928 ft 495 kts 17°
2026-04-24 08:43 -29.38997 153.07797 38176 ft 501 kts 17°
2026-04-24 08:43 -29.35668 153.08969 37464 ft 504 kts 17°
2026-04-24 08:44 -29.32311 153.10153 36769 ft 503 kts 17°
2026-04-24 08:44 -29.28974 153.11331 36134 ft 500 kts 17°
2026-04-24 08:44 -29.25683 153.12491 35488 ft 497 kts 17°
2026-04-24 08:44 -29.22366 153.13658 34778 ft 496 kts 17°
2026-04-24 08:45 -29.19106 153.14806 34036 ft 496 kts 17°
2026-04-24 08:45 -29.15802 153.15965 33238 ft 496 kts 17°
2026-04-24 08:45 -29.12514 153.17116 32554 ft 491 kts 17°
2026-04-24 08:45 -29.09254 153.18257 32018 ft 483 kts 18°
2026-04-24 08:46 -29.06107 153.19360 31506 ft 476 kts 18°
2026-04-24 08:46 -29.02946 153.20467 30956 ft 469 kts 18°
2026-04-24 08:46 -28.99845 153.21552 30378 ft 462 kts 19°
2026-04-24 08:46 -28.96812 153.22615 29768 ft 456 kts 19°
2026-04-24 08:47 -28.93827 153.23663 29287 ft 446 kts 19°
2026-04-24 08:47 -28.90859 153.24703 28886 ft 438 kts 19°
2026-04-24 08:47 -28.87975 153.25713 28487 ft 433 kts 19°
2026-04-24 08:47 -28.85110 153.26715 28097 ft 428 kts 19°
2026-04-24 08:48 -28.82274 153.27704 27715 ft 424 kts 19°
2026-04-24 08:48 -28.79465 153.28685 27330 ft 420 kts 19°
2026-04-24 08:48 -28.76689 153.29654 26957 ft 415 kts 19°
2026-04-24 08:48 -28.73936 153.30615 26589 ft 411 kts 19°
2026-04-24 08:49 -28.71203 153.31567 26224 ft 407 kts 19°
2026-04-24 08:49 -28.68503 153.32507 25865 ft 403 kts 19°
2026-04-24 08:49 -28.65857 153.33427 25508 ft 400 kts 20°
2026-04-24 08:49 -28.63210 153.34349 25153 ft 396 kts 19°
2026-04-24 08:50 -28.60562 153.35271 24793 ft 393 kts 20°
2026-04-24 08:50 -28.57986 153.36166 24443 ft 389 kts 20°
2026-04-24 08:50 -28.55397 153.37065 24095 ft 386 kts 19°
2026-04-24 08:50 -28.52831 153.37956 23749 ft 383 kts 20°
2026-04-24 08:51 -28.50294 153.38837 23403 ft 380 kts 20°
2026-04-24 08:51 -28.47778 153.39708 23058 ft 377 kts 20°
2026-04-24 08:51 -28.45282 153.40573 22710 ft 375 kts 20°
2026-04-24 08:51 -28.42774 153.41441 22368 ft 373 kts 20°
2026-04-24 08:52 -28.40285 153.42303 22024 ft 370 kts 20°
2026-04-24 08:52 -28.37845 153.43147 21682 ft 368 kts 20°
2026-04-24 08:52 -28.35392 153.43997 21336 ft 366 kts 20°
2026-04-24 08:52 -28.32948 153.44842 20998 ft 364 kts 20°
2026-04-24 08:53 -28.30547 153.45673 20656 ft 362 kts 20°
2026-04-24 08:53 -28.28130 153.46507 20318 ft 360 kts 20°
2026-04-24 08:53 -28.25746 153.47331 19983 ft 358 kts 20°
2026-04-24 08:53 -28.23367 153.48154 19648 ft 356 kts 21°
2026-04-24 08:54 -28.21008 153.48965 19310 ft 355 kts 21°
2026-04-24 08:54 -28.18624 153.49727 18963 ft 355 kts 15°
2026-04-24 08:54 -28.16149 153.50026 18616 ft 358 kts
2026-04-24 08:54 -28.13658 153.49788 18278 ft 360 kts 354°
2026-04-24 08:55 -28.11183 153.49293 17941 ft 360 kts 352°
2026-04-24 08:55 -28.08723 153.48758 17605 ft 358 kts 352°
2026-04-24 08:55 -28.06272 153.48227 17271 ft 357 kts 353°
2026-04-24 08:55 -28.03855 153.47710 16937 ft 356 kts 353°
2026-04-24 08:56 -28.01400 153.47194 16601 ft 354 kts 353°
2026-04-24 08:56 -27.98992 153.46692 16274 ft 353 kts 353°
2026-04-24 08:56 -27.96584 153.46191 15947 ft 352 kts 353°
2026-04-24 08:56 -27.94178 153.45695 15603 ft 351 kts 353°
2026-04-24 08:57 -27.91767 153.45195 15268 ft 350 kts 353°
2026-04-24 08:57 -27.89371 153.44701 14939 ft 348 kts 353°
2026-04-24 08:57 -27.86973 153.44205 14597 ft 347 kts 353°
2026-04-24 08:57 -27.84616 153.43716 14281 ft 346 kts 353°
2026-04-24 08:58 -27.82258 153.43230 13933 ft 344 kts 353°
2026-04-24 08:58 -27.79880 153.42738 13596 ft 343 kts 353°
2026-04-24 08:58 -27.77533 153.42256 13279 ft 342 kts 353°
2026-04-24 08:58 -27.75199 153.41774 12950 ft 341 kts 353°
2026-04-24 08:59 -27.72845 153.41289 12616 ft 341 kts 353°
2026-04-24 08:59 -27.70543 153.40816 12294 ft 340 kts 353°
2026-04-24 08:59 -27.68206 153.40335 11969 ft 339 kts 353°
2026-04-24 08:59 -27.65875 153.39861 11640 ft 338 kts 354°
2026-04-24 09:00 -27.63549 153.39563 11299 ft 335 kts
2026-04-24 09:00 -27.61235 153.39528 10975 ft 331 kts
2026-04-24 09:00 -27.58952 153.39622 10642 ft 330 kts
2026-04-24 09:00 -27.56647 153.39739 10319 ft 329 kts
2026-04-24 09:01 -27.54364 153.39853 10034 ft 327 kts
2026-04-24 09:01 -27.52129 153.39960 9994 ft 316 kts
2026-04-24 09:01 -27.49966 153.40059 9985 ft 304 kts
2026-04-24 09:01 -27.47893 153.40153 9941 ft 293 kts
2026-04-24 09:02 -27.45870 153.40247 9699 ft 291 kts
2026-04-24 09:02 -27.43829 153.40344 9419 ft 291 kts
2026-04-24 09:02 -27.41805 153.40439 9141 ft 290 kts
2026-04-24 09:02 -27.39807 153.40530 8970 ft 285 kts
2026-04-24 09:03 -27.37844 153.40619 8958 ft 274 kts
2026-04-24 09:03 -27.35958 153.40701 8898 ft 266 kts
2026-04-24 09:03 -27.34144 153.40784 8760 ft 260 kts
2026-04-24 09:03 -27.32350 153.40866 8475 ft 258 kts
2026-04-24 09:04 -27.30560 153.40950 8146 ft 257 kts
2026-04-24 09:04 -27.28760 153.41034 7835 ft 256 kts
2026-04-24 09:04 -27.27002 153.41113 7547 ft 253 kts
2026-04-24 09:04 -27.25242 153.41194 7264 ft 252 kts
2026-04-24 09:05 -27.23500 153.41272 7017 ft 247 kts
2026-04-24 09:05 -27.21789 153.41347 6810 ft 240 kts
2026-04-24 09:05 -27.20135 153.41359 6502 ft 242 kts 355°
2026-04-24 09:05 -27.18549 153.40666 6157 ft 250 kts 326°
2026-04-24 09:06 -27.17203 153.39452 5893 ft 247 kts 321°
2026-04-24 09:06 -27.15916 153.38179 5637 ft 244 kts 320°
2026-04-24 09:06 -27.14649 153.36932 5388 ft 241 kts 321°
2026-04-24 09:06 -27.13419 153.35692 5156 ft 236 kts 310°
2026-04-24 09:07 -27.12762 153.34059 4900 ft 226 kts 271°
2026-04-24 09:07 -27.13008 153.32423 4778 ft 204 kts 240°
2026-04-24 09:07 -27.14224 153.29723 4588 ft 190 kts 234°
2026-04-24 09:08 -27.14838 153.28394 4491 ft 191 kts 235°
2026-04-24 09:08 -27.15443 153.27075 4374 ft 188 kts 227°
2026-04-24 09:08 -27.16259 153.25957 4277 ft 181 kts 215°
2026-04-24 09:08 -27.17221 153.25099 4197 ft 176 kts 205°
2026-04-24 09:09 -27.18266 153.24405 4122 ft 173 kts 199°
2026-04-24 09:09 -27.19329 153.23787 3929 ft 171 kts 198°
2026-04-24 09:09 -27.20406 153.23180 3707 ft 171 kts 198°
2026-04-24 09:09 -27.21475 153.22578 3484 ft 171 kts 198°
2026-04-24 09:10 -27.22533 153.21977 3252 ft 171 kts 198°
2026-04-24 09:10 -27.23598 153.21368 3020 ft 172 kts 199°
2026-04-24 09:10 -27.24675 153.20752 2787 ft 172 kts 199°
2026-04-24 09:10 -27.25741 153.20142 2556 ft 173 kts 199°
2026-04-24 09:11 -27.26820 153.19522 2325 ft 172 kts 199°
2026-04-24 09:11 -27.27872 153.18918 2099 ft 165 kts 199°
2026-04-24 09:11 -27.28871 153.18343 1877 ft 159 kts 199°
2026-04-24 09:11 -27.29840 153.17789 1668 ft 152 kts 199°
2026-04-24 09:12 -27.30758 153.17256 1472 ft 146 kts 200°
2026-04-24 09:12 -27.31648 153.16746 1283 ft 138 kts 199°
2026-04-24 09:12 -27.32506 153.16267 1113 ft 138 kts 200°
2026-04-24 09:12 -27.33362 153.15778 955 ft 138 kts 201°
2026-04-24 09:13 -27.34219 153.15286 775 ft 138 kts 201°
2026-04-24 09:13 -27.35073 153.14803 582 ft 138 kts 202°
2026-04-24 09:13 -27.35930 153.14317 396 ft 138 kts 203°
2026-04-24 09:13 -27.36786 153.13826 207 ft 137 kts 204°
2026-04-24 09:14 -27.37629 153.13338 38 ft 135 kts 205°
2026-04-24 09:14 -27.38378 153.12912 31 ft 97 kts 208°
2026-04-24 09:14 -27.38789 153.12669 31 ft 49 kts 211°
2026-04-24 09:14 -27.38991 153.12476 31 ft 22 kts 232°
2026-04-24 09:15 -27.39052 153.12373 31 ft 13 kts 238°
2026-04-24 09:15 -27.39108 153.12280 31 ft 14 kts 236°
2026-04-24 09:15 -27.39129 153.12183 31 ft 12 kts 283°
2026-04-24 09:15 -27.39055 153.12157 31 ft 13 kts 21°
2026-04-24 09:16 -27.38966 153.12207 31 ft 14 kts 27°
2026-04-24 09:16 -27.38870 153.12264 31 ft 15 kts 27°
2026-04-24 09:16 -27.38769 153.12321 31 ft 16 kts 27°
2026-04-24 09:16 -27.38667 153.12380 31 ft 13 kts 27°
2026-04-24 09:17 -27.38596 153.12408 31 ft 11 kts 358°
2026-04-24 09:17 -27.38531 153.12355 31 ft 12 kts 303°
2026-04-24 09:17 -27.38496 153.12286 31 ft 8 kts 295°
2026-04-24 09:17 -27.38496 153.12233 31 ft 6 kts 247°
2026-04-24 09:18 -27.38498 153.12195 31 ft 6 kts 284°
2026-04-24 09:18 -27.38483 153.12155 31 ft 3 kts 296°
2026-04-24 09:18 -27.38479 153.12146 31 ft 0 kts 296°